TimeCDT,TemperatureF,Dew PointF,Humidity,Sea Level PressureIn,VisibilityMPH,Wind Direction,Wind SpeedMPH,Gust SpeedMPH,PrecipitationIn,Events,Conditions,WindDirDegrees,DateUTC
12:53 AM,60.8,24.8,25,30.00,10.0,Calm,Calm,-,N/A,,Clear,0,2011-10-21 05:53:00
1:53 AM,55.0,24.1,30,29.91,10.0,North,9.2,-,N/A,,Clear,350,2011-10-21 06:53:00
2:53 AM,55.9,25.0,30,29.91,10.0,ENE,3.5,-,N/A,,Clear,70,2011-10-21 07:53:00
3:53 AM,53.1,28.0,38,29.92,10.0,North,8.1,-,N/A,,Clear,360,2011-10-21 08:53:00
4:53 AM,48.2,24.8,40,30.04,10.0,West,5.8,-,N/A,,Clear,270,2011-10-21 09:53:00
5:53 AM,48.0,25.0,41,29.95,10.0,NNW,6.9,-,N/A,,Clear,340,2011-10-21 10:53:00
6:53 AM,46.9,25.0,42,29.96,10.0,North,8.1,-,N/A,,Clear,10,2011-10-21 11:53:00
7:53 AM,46.0,26.1,46,30.00,10.0,North,8.1,-,N/A,,Clear,350,2011-10-21 12:53:00
8:53 AM,50.0,27.0,41,30.04,10.0,North,8.1,-,N/A,,Clear,350,2011-10-21 13:53:00
9:53 AM,57.0,28.9,34,30.05,10.0,North,6.9,-,N/A,,Clear,360,2011-10-21 14:53:00
10:53 AM,68.0,32.0,26,30.04,10.0,NNE,3.5,-,N/A,,Clear,30,2011-10-21 15:53:00
11:53 AM,72.0,32.0,23,30.03,10.0,NW,4.6,-,N/A,,Clear,320,2011-10-21 16:53:00
12:53 PM,78.1,30.0,17,30.01,10.0,Calm,Calm,-,N/A,,Clear,0,2011-10-21 17:53:00
1:53 PM,84.0,28.9,14,29.97,10.0,Variable,3.5,-,N/A,,Clear,0,2011-10-21 18:53:00
2:53 PM,87.1,28.0,12,29.93,10.0,Variable,3.5,-,N/A,,Clear,0,2011-10-21 19:53:00
3:53 PM,88.0,25.0,10,29.92,10.0,SSW,6.9,-,N/A,,Clear,210,2011-10-21 20:53:00
4:53 PM,89.1,24.1,9,29.91,10.0,West,4.6,-,N/A,,Clear,270,2011-10-21 21:53:00
5:53 PM,89.1,23.0,9,29.90,10.0,Calm,Calm,-,N/A,,Clear,0,2011-10-21 22:53:00
6:53 PM,86.0,24.1,10,29.90,10.0,Calm,Calm,-,N/A,,Clear,0,2011-10-21 23:53:00
7:53 PM,79.0,25.0,14,29.93,10.0,SSW,3.5,-,N/A,,Clear,210,2011-10-22 00:53:00
8:53 PM,73.9,25.0,16,29.94,10.0,SSW,3.5,-,N/A,,Clear,210,2011-10-22 01:53:00
9:53 PM,68.0,23.0,18,29.95,10.0,SW,5.8,-,N/A,,Clear,230,2011-10-22 02:53:00
10:53 PM,66.2,24.8,21,30.03,10.0,Calm,Calm,-,N/A,,Clear,0,2011-10-22 03:53:00
11:53 PM,66.0,23.0,20,29.93,10.0,SE,9.2,-,N/A,,Clear,140,2011-10-22 04:53:00